GW6523 Weather Reports


time (UTC)temp
C
wind
direction
speed
KPH
gust
KPH
rain 1hr
cm
rain 24hr
cm
rain mn
cm
humidity
%
barometer
mb
20260902233508 32 269 0.0 1.6 0.00 0.00 0.00 60 1003.8
20260902233022 32 223 0.0 1.6 0.00 0.00 0.00 60 1003.8
20260902233008 32 269 0.0 1.6 0.00 0.00 0.00 60 1003.8
20260902232508 32 135 0.0 3.2 0.00 0.00 0.00 59 1003.9
20260902232019 32 223 1.6 3.2 0.00 0.00 0.00 59 1003.9
20260902231521 32 223 1.6 3.2 0.00 0.00 0.00 58 1003.9
20260902231507 32 240 1.6 3.2 0.00 0.00 0.00 58 1003.9
20260902231009 32 216 0.0 4.8 0.00 0.00 0.00 58 1003.9
20260902230521 32 253 1.6 6.4 0.00 0.00 0.00 58 1003.9
20260902230508 32 231 1.6 6.4 0.00 0.00 0.00 58 1003.9
20260902230032 32 223 1.6 6.4 0.00 0.00 0.00 57 1003.9
20260902230009 32 1 1.6 6.4 0.00 0.00 0.00 57 1003.9
20260902225508 32 240 1.6 3.2 0.00 0.00 0.00 57 1004.0
20260902225008 32 223 0.0 4.8 0.00 0.00 0.00 57 1004.0
20260902224507 33 223 0.0 4.8 0.00 0.00 0.00 56 1003.9
20260902224007 33 314 0.0 4.8 0.00 0.00 0.00 57 1004.0
20260902223519 33 269 1.6 3.2 0.00 0.00 0.00 56 1003.9
20260902223030 33 269 1.6 4.8 0.00 0.00 0.00 56 1004.1
20260902222507 33 216 1.6 4.8 0.00 0.00 0.00 56 1004.1
20260902222007 33 46 0.0 4.8 0.00 0.00 0.00 55 1004.1
20260902221521 33 269 1.6 4.8 0.00 0.00 0.00 56 1004.1
20260902221507 33 28 1.6 4.8 0.00 0.00 0.00 55 1004.1
20260902221008 33 250 1.6 3.2 0.00 0.00 0.00 55 1004.1
20260902220521 33 269 0.0 4.8 0.00 0.00 0.00 55 1004.1
20260902220508 33 240 0.0 4.8 0.00 0.00 0.00 55 1004.1
20260902220021 33 1 1.6 4.8 0.00 0.00 0.00 54 1004.1
20260902220008 33 269 1.6 4.8 0.00 0.00 0.00 54 1004.1
20260902215507 33 258 0.0 3.2 0.00 0.00 0.00 54 1004.1
20260902215007 33 269 1.6 3.2 0.00 0.00 0.00 53 1004.0
20260902214521 33 360 1.6 4.8 0.00 0.00 0.00 54 1004.0
20260902214508 33 223 1.6 6.4 0.00 0.00 0.00 54 1004.0
20260902214020 33 206 1.6 6.4 0.00 0.00 0.00 53 1004.1
20260902213543 33 234 1.6 3.2 0.00 0.00 0.00 55 1004.1
20260902213507 33 302 1.6 3.2 0.00 0.00 0.00 54 1004.1
20260902213021 33 32 0.0 4.8 0.00 0.00 0.00 54 1004.2
20260902213007 33 89 0.0 4.8 0.00 0.00 0.00 54 1004.2
20260902212519 33 237 1.6 6.4 0.00 0.00 0.00 53 1004.2
20260902212019 33 216 1.6 6.4 0.00 0.00 0.00 54 1004.2
20260902211546 33 269 1.6 4.8 0.00 0.00 0.00 53 1004.2
20260902211509 33 223 1.6 4.8 0.00 0.00 0.00 53 1004.2
20260902211007 33 253 1.6 6.4 0.00 0.00 0.00 54 1004.2
20260902210507 34 240 1.6 3.2 0.00 0.00 0.00 53 1004.2
20260902210026 34 269 1.6 4.8 0.00 0.00 0.00 52 1004.3
20260902210007 34 223 1.6 4.8 0.00 0.00 0.00 52 1004.3
20260902205506 34 331 0.0 9.7 0.00 0.00 0.00 52 1004.3
20260902205018 34 259 1.6 9.7 0.00 0.00 0.00 53 1004.3
20260902204521 34 35 1.6 6.4 0.00 0.00 0.00 52 1004.3
20260902204507 34 28 1.6 3.2 0.00 0.00 0.00 52 1004.3
20260902204007 34 331 1.6 6.4 0.00 0.00 0.00 52 1004.3
20260902203522 34 259 3.2 6.4 0.00 0.00 0.00 51 1004.4
20260902203508 34 227 3.2 6.4 0.00 0.00 0.00 51 1004.4
20260902203032 34 269 1.6 4.8 0.00 0.00 0.00 52 1004.5
20260902203007 34 28 1.6 4.8 0.00 0.00 0.00 52 1004.5
20260902202507 34 327 1.6 4.8 0.00 0.00 0.00 53 1004.4
20260902202007 34 302 1.6 6.4 0.00 0.00 0.00 52 1004.5
20260902201521 34 295 3.2 6.4 0.00 0.00 0.00 52 1004.5
20260902201508 34 314 3.2 6.4 0.00 0.00 0.00 52 1004.5
20260902201012 34 46 0.0 6.4 0.00 0.00 0.00 52 1004.5
20260902200521 34 331 1.6 6.4 0.00 0.00 0.00 51 1004.5
20260902200508 34 240 1.6 6.4 0.00 0.00 0.00 51 1004.5
20260902200033 34 229 1.6 9.7 0.00 0.00 0.00 51 1004.6
20260902200007 34 240 1.6 9.7 0.00 0.00 0.00 51 1004.6
20260902195508 34 39 1.6 9.7 0.00 0.00 0.00 51 1004.7
20260902195007 34 269 1.6 6.4 0.00 0.00 0.00 51 1004.8
20260902194521 34 223 1.6 6.4 0.00 0.00 0.00 51 1004.8
20260902194508 34 197 1.6 6.4 0.00 0.00 0.00 51 1004.8
20260902194006 35 56 0.0 6.4 0.00 0.00 0.00 51 1004.8
20260902193508 35 1 1.6 6.4 0.00 0.00 0.00 50 1004.9
20260902193021 35 223 3.2 4.8 0.00 0.00 0.00 51 1004.9
20260902193007 35 259 3.2 4.8 0.00 0.00 0.00 51 1004.9
20260902192508 35 240 3.2 4.8 0.00 0.00 0.00 51 1005.0
20260902192007 34 223 1.6 6.4 0.00 0.00 0.00 51 1005.1
20260902191530 35 344 3.2 9.7 0.00 0.00 0.00 50 1005.1
20260902191007 35 30 4.8 9.7 0.00 0.00 0.00 51 1005.1
20260902190521 35 1 3.2 6.4 0.00 0.00 0.00 51 1005.2
20260902190507 35 39 1.6 6.4 0.00 0.00 0.00 51 1005.2
20260902190020 35 314 1.6 8.0 0.00 0.00 0.00 50 1005.2
20260902190009 35 269 1.6 8.0 0.00 0.00 0.00 50 1005.2
20260902185507 35 269 3.2 8.0 0.00 0.00 0.00 50 1005.3
20260902185009 35 234 1.6 4.8 0.00 0.00 0.00 50 1005.3
20260902184532 35 314 1.6 9.7 0.00 0.00 0.00 50 1005.3
20260902184507 35 302 1.6 9.7 0.00 0.00 0.00 51 1005.3
20260902184020 35 215 1.6 9.7 0.00 0.00 0.00 52 1005.4
20260902183506 35 347 1.6 8.0 0.00 0.00 0.00 51 1005.4
20260902183032 35 336 1.6 9.7 0.00 0.00 0.00 51 1005.4
20260902183007 35 223 1.6 9.7 0.00 0.00 0.00 51 1005.4
20260902182508 35 27 4.8 9.7 0.00 0.00 0.00 51 1005.5
20260902182008 35 269 3.2 9.7 0.00 0.00 0.00 52 1005.5
20260902181522 35 178 1.6 8.0 0.00 0.00 0.00 53 1005.5
20260902181508 35 269 1.6 8.0 0.00 0.00 0.00 54 1005.5
20260902181007 35 240 1.6 8.0 0.00 0.00 0.00 53 1005.5
20260902180521 35 46 1.6 8.0 0.00 0.00 0.00 53 1005.6
20260902180508 35 135 1.6 8.0 0.00 0.00 0.00 53 1005.6
20260902180021 35 257 3.2 4.8 0.00 0.00 0.00 54 1005.6
20260902180008 35 295 3.2 4.8 0.00 0.00 0.00 54 1005.6
20260902175508 34 250 1.6 6.4 0.00 0.00 0.00 56 1005.7
20260902175007 34 1 1.6 4.8 0.00 0.00 0.00 55 1005.7
20260902174522 34 1 1.6 6.4 0.00 0.00 0.00 56 1005.6
20260902174518 34 178 1.6 6.4 0.00 0.00 0.00 56 1005.6
20260902174007 34 46 1.6 6.4 0.00 0.00 0.00 55 1005.8
20260902173518 35 35 3.2 8.0 0.00 0.00 0.00 56 1005.8
20260902173022 35 39 3.2 4.8 0.00 0.00 0.00 56 1005.9
20260902173018 35 20 3.2 4.8 0.00 0.00 0.00 56 1005.9
20260902172507 35 46 1.6 9.7 0.00 0.00 0.00 54 1005.9
20260902172007 35 240 3.2 9.7 0.00 0.00 0.00 54 1006.0
20260902171520 35 20 4.8 9.7 0.00 0.00 0.00 55 1006.0
20260902171508 35 23 4.8 9.7 0.00 0.00 0.00 55 1006.0
20260902171018 35 253 1.6 9.7 0.00 0.00 0.00 55 1006.1
20260902170533 35 295 1.6 9.7 0.00 0.00 0.00 53 1006.1
20260902170507 35 295 3.2 9.7 0.00 0.00 0.00 54 1006.1
20260902170021 35 216 3.2 8.0 0.00 0.00 0.00 54 1006.1
20260902170008 35 290 3.2 8.0 0.00 0.00 0.00 55 1006.1
20260902165507 35 232 3.2 6.4 0.00 0.00 0.00 56 1006.1
20260902165009 35 35 1.6 8.0 0.00 0.00 0.00 53 1006.2
20260902164521 35 257 3.2 8.0 0.00 0.00 0.00 54 1006.2
20260902164509 35 229 3.2 8.0 0.00 0.00 0.00 54 1006.2
20260902164008 35 46 1.6 8.0 0.00 0.00 0.00 55 1006.3
20260902163521 35 46 1.6 6.4 0.00 0.00 0.00 54 1006.3
20260902163515 35 206 3.2 6.4 0.00 0.00 0.00 54 1006.3
20260902163021 35 23 1.6 6.4 0.00 0.00 0.00 53 1006.4
20260902163010 35 1 1.6 6.4 0.00 0.00 0.00 53 1006.4
20260902162507 35 324 1.6 6.4 0.00 0.00 0.00 56 1006.4
20260902162008 35 28 1.6 4.8 0.00 0.00 0.00 54 1006.4
20260902161520 35 223 1.6 8.0 0.00 0.00 0.00 55 1006.4
20260902161507 34 23 1.6 8.0 0.00 0.00 0.00 55 1006.4
20260902161021 34 250 1.6 8.0 0.00 0.00 0.00 56 1006.4
20260902161008 34 206 1.6 8.0 0.00 0.00 0.00 56 1006.4
20260902160520 34 314 1.6 6.4 0.00 0.00 0.00 56 1006.6
20260902160021 34 35 1.6 6.4 0.00 0.00 0.00 57 1006.6
20260902160011 34 40 1.6 6.4 0.00 0.00 0.00 56 1006.6
20260902155506 34 35 1.6 6.4 0.00 0.00 0.00 57 1006.6
20260902155007 34 331 1.6 4.8 0.00 0.00 0.00 58 1006.7
20260902154521 33 331 3.2 4.8 0.00 0.00 0.00 58 1006.7
20260902154508 33 324 3.2 4.8 0.00 0.00 0.00 58 1006.7
20260902154008 33 46 1.6 4.8 0.00 0.00 0.00 59 1006.7
20260902153524 33 324 1.6 4.8 0.00 0.00 0.00 63 1006.8
20260902153513 33 314 1.6 4.8 0.00 0.00 0.00 63 1006.8
20260902153021 32 23 1.6 6.4 0.00 0.00 0.00 62 1006.8
20260902153007 32 314 1.6 6.4 0.00 0.00 0.00 62 1006.8
20260902152508 32 20 1.6 6.4 0.00 0.00 0.00 63 1006.7
20260902152007 32 314 1.6 6.4 0.00 0.00 0.00 64 1006.8
20260902151521 32 340 0.0 6.4 0.00 0.00 0.00 63 1006.8
20260902151508 32 314 1.6 6.4 0.00 0.00 0.00 63 1006.8
20260902151020 31 1 1.6 4.8 0.00 0.00 0.00 66 1006.8
20260902150518 31 178 1.6 4.8 0.00 0.00 0.00 65 1006.8
20260902150022 31 178 0.0 4.8 0.00 0.00 0.00 68 1006.7
20260902150008 31 223 0.0 4.8 0.00 0.00 0.00 68 1006.7
20260902145507 31 20 3.2 4.8 0.00 0.00 0.00 68 1006.7
20260902145007 30 269 0.0 3.2 0.00 0.00 0.00 68 1006.7
20260902144521 30 250 1.6 3.2 0.00 0.00 0.00 69 1006.7
20260902144507 30 135 0.0 3.2 0.00 0.00 0.00 71 1006.7
20260902144008 30 46 0.0 3.2 0.00 0.00 0.00 71 1006.8
20260902143542 29 178 0.0 4.8 0.00 0.00 0.00 72 1006.7
20260902143020 29 1 0.0 8.0 0.00 0.00 0.00 73 1006.8
20260902143011 29 35 0.0 8.0 0.00 0.00 0.00 73 1006.8
20260902142508 29 32 3.2 8.0 0.00 0.00 0.00 73 1006.8
20260902142008 28 269 1.6 4.8 0.00 0.00 0.00 74 1006.8
20260902141520 28 178 0.0 8.0 0.00 0.00 0.00 74 1006.8
20260902141508 28 135 0.0 8.0 0.00 0.00 0.00 74 1006.8
20260902141006 28 76 3.2 8.0 0.00 0.00 0.00 74 1006.8
20260902140520 28 35 1.6 4.8 0.00 0.00 0.00 76 1006.7
20260902140507 28 25 1.6 4.8 0.00 0.00 0.00 76 1006.7
20260902140023 27 28 1.6 4.8 0.00 0.00 0.00 77 1006.7
20260902140009 27 89 1.6 4.8 0.00 0.00 0.00 77 1006.7
20260902135508 27 28 0.0 4.8 0.00 0.00 0.00 79 1006.7
20260902135008 27 269 0.0 3.2 0.00 0.00 0.00 79 1006.7
20260902134520 27 1 0.0 3.2 0.00 0.00 0.00 80 1006.7
20260902134507 26 1 0.0 3.2 0.00 0.00 0.00 80 1006.7
20260902134021 26 46 0.0 1.6 0.00 0.00 0.00 80 1006.7
20260902134008 26 1 0.0 1.6 0.00 0.00 0.00 80 1006.7
20260902133522 26 46 0.0 4.8 0.00 0.00 0.00 81 1006.8
20260902133507 26 314 0.0 4.8 0.00 0.00 0.00 81 1006.8
20260902133020 26 28 1.6 4.8 0.00 0.00 0.00 82 1006.8
20260902133007 26 89 1.6 4.8 0.00 0.00 0.00 82 1006.8
20260902132508 26 89 1.6 4.8 0.00 0.00 0.00 82 1006.8
20260902132011 25 314 0.0 3.2 0.00 0.00 0.00 83 1006.7
20260902131522 25 223 0.0 3.2 0.00 0.00 0.00 83 1006.8
20260902131508 25 178 0.0 3.2 0.00 0.00 0.00 83 1006.8
20260902131008 25 178 0.0 3.2 0.00 0.00 0.00 83 1006.8
20260902130507 25 223 0.0 3.2 0.00 0.00 0.00 84 1006.8
20260902130021 25 178 0.0 3.2 0.00 0.00 0.00 85 1006.8
20260902130007 25 240 0.0 3.2 0.00 0.00 0.00 85 1006.8
20260902125508 25 253 1.6 3.2 0.00 0.00 0.00 85 1006.7
20260902125008 25 240 0.0 3.2 0.00 0.00 0.00 86 1006.6
20260902124532 24 245 1.6 3.2 0.00 0.00 0.00 87 1006.7
20260902124507 24 223 1.6 3.2 0.00 0.00 0.00 87 1006.7
20260902124019 24 1 0.0 3.2 0.00 0.00 0.00 88 1006.6
20260902123520 23 223 0.0 3.2 0.00 0.00 0.00 88 1006.5
20260902123508 23 240 0.0 3.2 0.00 0.00 0.00 89 1006.5
20260902123020 23 240 0.0 1.6 0.00 0.00 0.00 90 1006.5
20260902123007 23 269 0.0 1.6 0.00 0.00 0.00 90 1006.5
20260902122518 23 269 0.0 3.2 0.00 0.00 0.00 91 1006.4
20260902122006 23 46 0.0 1.6 0.00 0.00 0.00 91 1006.3
20260902121520 22 269 0.0 1.6 0.00 0.00 0.00 91 1006.3
20260902121507 22 223 0.0 1.6 0.00 0.00 0.00 91 1006.3
20260902121011 22 223 0.0 1.6 0.00 0.00 0.00 91 1006.3
20260902120520 22 223 0.0 1.6 0.00 0.00 0.00 90 1006.3
20260902120508 22 269 0.0 1.6 0.00 0.00 0.00 90 1006.3
20260902120021 22 89 0.0 1.6 0.00 0.00 0.00 90 1006.2
20260902120008 22 240 0.0 1.6 0.00 0.00 0.00 90 1006.2
20260902115521 22 314 0.0 1.6 0.00 0.00 0.00 90 1006.1
20260902115513 22 295 0.0 1.6 0.00 0.00 0.00 90 1006.1
20260902115007 22 269 0.0 1.6 0.00 0.00 0.00 89 1006.1
20260902114524 22 269 0.0 1.6 0.00 0.00 0.00 89 1006.0
20260902114507 22 223 0.0 1.6 0.00 0.00 0.00 89 1006.0
20260902114030 22 269 0.0 0.0 0.00 0.00 0.00 89 1006.1
20260902113507 22 1 0.0 1.6 0.00 0.00 0.00 89 1006.0
20260902113020 22 89 0.0 1.6 0.00 0.00 0.00 89 1006.0
20260902113008 22 46 0.0 1.6 0.00 0.00 0.00 89 1006.0
20260902112507 22 269 0.0 1.6 0.00 0.00 0.00 89 1005.9
20260902112008 22 269 0.0 1.6 0.00 0.00 0.00 89 1005.9
20260902111521 22 269 0.0 0.0 0.00 0.00 0.00 88 1005.9
20260902111508 22 1 0.0 0.0 0.00 0.00 0.00 88 1005.9
20260902111007 22 223 0.0 0.0 0.00 0.00 0.00 88 1005.8
20260902110520 22 135 0.0 0.0 0.00 0.00 0.00 88 1005.8
20260902110508 22 269 0.0 0.0 0.00 0.00 0.00 88 1005.8
20260902110020 22 46 0.0 1.6 0.00 0.00 0.00 88 1005.8
20260902110012 22 269 0.0 1.6 0.00 0.00 0.00 88 1005.8
20260902105507 23 46 0.0 1.6 0.00 0.00 0.00 88 1005.9
20260902105007 23 1 0.0 1.6 0.00 0.00 0.00 88 1005.9
20260902104520 23 89 0.0 1.6 0.00 0.00 0.00 88 1005.8
20260902104511 23 178 0.0 1.6 0.00 0.00 0.00 88 1005.8
20260902104008 23 46 0.0 1.6 0.00 0.00 0.00 88 1005.8
20260902103508 23 295 0.0 1.6 0.00 0.00 0.00 88 1005.8
20260902103021 23 269 0.0 1.6 0.00 0.00 0.00 88 1005.8
20260902103007 23 314 0.0 1.6 0.00 0.00 0.00 88 1005.8
20260902102507 23 314 0.0 0.0 0.00 0.00 0.00 87 1005.7
20260902102008 23 295 0.0 1.6 0.00 0.00 0.00 87 1005.7
20260902101521 23 269 0.0 1.6 0.00 0.00 0.00 87 1005.7
20260902101508 23 46 0.0 1.6 0.00 0.00 0.00 88 1005.7
20260902101019 23 269 0.0 1.6 0.00 0.00 0.00 87 1005.7
20260902100506 23 46 0.0 1.6 0.00 0.00 0.00 87 1005.6
20260902100020 23 269 0.0 0.0 0.00 0.00 0.00 87 1005.6
20260902100008 23 314 0.0 0.0 0.00 0.00 0.00 87 1005.6
20260902095507 23 269 0.0 0.0 0.00 0.00 0.00 87 1005.6
20260902095007 23 178 0.0 0.0 0.00 0.00 0.00 87 1005.6
20260902094520 23 178 0.0 0.0 0.00 0.00 0.00 87 1005.5
20260902094507 23 1 0.0 0.0 0.00 0.00 0.00 87 1005.5
20260902094008 23 1 0.0 0.0 0.00 0.00 0.00 87 1005.5
20260902093507 23 178 0.0 1.6 0.00 0.00 0.00 87 1005.6
20260902093007 23 269 0.0 1.6 0.00 0.00 0.00 87 1005.6
20260902092507 23 223 0.0 1.6 0.00 0.00 0.00 87 1005.6
20260902092008 23 295 0.0 0.0 0.00 0.00 0.00 87 1005.5
20260902091520 23 46 0.0 0.0 0.00 0.00 0.00 87 1005.5
20260902091507 23 314 0.0 0.0 0.00 0.00 0.00 87 1005.5
20260902091006 23 1 0.0 0.0 0.00 0.00 0.00 87 1005.5
20260902090521 23 178 0.0 1.6 0.00 0.00 0.00 87 1005.4
20260902090509 23 269 0.0 1.6 0.00 0.00 0.00 87 1005.4
20260902090008 23 223 0.0 1.6 0.00 0.00 0.00 87 1005.3
20260902085521 23 269 0.0 1.6 0.00 0.00 0.00 87 1005.3
20260902085507 23 206 0.0 1.6 0.00 0.00 0.00 87 1005.3
20260902085018 23 223 0.0 1.6 0.00 0.00 0.00 87 1005.2
20260902084520 23 240 0.0 1.6 0.00 0.00 0.00 87 1005.2
20260902084508 23 223 0.0 1.6 0.00 0.00 0.00 87 1005.2
20260902084007 23 46 0.0 1.6 0.00 0.00 0.00 87 1005.1
20260902083520 23 250 0.0 1.6 0.00 0.00 0.00 87 1005.0
20260902083507 23 269 0.0 1.6 0.00 0.00 0.00 87 1005.0
20260902083007 23 46 0.0 1.6 0.00 0.00 0.00 87 1005.0
20260902082507 23 269 0.0 1.6 0.00 0.00 0.00 88 1005.0
20260902082008 23 46 0.0 1.6 0.00 0.00 0.00 87 1005.0
20260902081534 23 269 0.0 1.6 0.00 0.00 0.00 87 1005.0
20260902081519 23 295 0.0 1.6 0.00 0.00 0.00 87 1005.0
20260902081008 23 269 0.0 1.6 0.00 0.00 0.00 87 1004.9
20260902080507 23 269 0.0 1.6 0.00 0.00 0.00 87 1004.9
20260902080027 23 269 0.0 0.0 0.00 0.00 0.00 87 1004.9
20260902080024 23 46 0.0 0.0 0.00 0.00 0.00 87 1004.9
20260902075507 23 46 0.0 1.6 0.00 0.00 0.00 87 1004.9
20260902075007 23 314 0.0 1.6 0.00 0.00 0.00 87 1004.8
20260902074517 23 223 0.0 0.0 0.00 0.00 0.00 87 1004.9
20260902074006 23 46 0.0 0.0 0.00 0.00 0.00 87 1004.8
20260902073520 23 269 0.0 1.6 0.00 0.00 0.00 87 1004.8
20260902073507 23 46 0.0 1.6 0.00 0.00 0.00 87 1004.8
20260902073031 23 1 0.0 1.6 0.00 0.00 0.00 87 1004.9
20260902073007 23 178 0.0 1.6 0.00 0.00 0.00 87 1004.9
20260902072517 23 46 0.0 1.6 0.00 0.00 0.00 87 1004.9
20260902072006 23 46 0.0 1.6 0.00 0.00 0.00 87 1004.9
20260902071507 23 269 0.0 0.0 0.00 0.00 0.00 86 1004.9
20260902071007 23 314 0.0 0.0 0.00 0.00 0.00 86 1004.9
20260902070509 24 46 0.0 1.6 0.00 0.00 0.00 86 1004.9
20260902070020 24 269 0.0 1.6 0.00 0.00 0.00 86 1004.9
20260902070009 24 269 0.0 0.0 0.00 0.00 0.00 86 1004.9
20260902065507 24 269 0.0 1.6 0.00 0.00 0.00 86 1004.9
20260902065020 24 269 0.0 1.6 0.00 0.00 0.00 86 1004.9
20260902065008 24 46 0.0 1.6 0.00 0.00 0.00 86 1004.9
20260902064507 24 269 0.0 1.6 0.00 0.00 0.00 86 1004.8
20260902064009 24 331 0.0 1.6 0.00 0.00 0.00 86 1004.9
20260902063507 24 314 0.0 1.6 0.00 0.00 0.00 86 1004.8
20260902063022 24 269 0.0 1.6 0.00 0.00 0.00 86 1004.9
20260902063018 24 295 0.0 1.6 0.00 0.00 0.00 86 1004.9
20260902062508 24 269 0.0 1.6 0.00 0.00 0.00 85 1004.9
20260902062008 24 46 0.0 1.6 0.00 0.00 0.00 84 1004.9
20260902061531 24 46 0.0 1.6 0.00 0.00 0.00 85 1004.9
20260902061509 24 269 0.0 1.6 0.00 0.00 0.00 85 1004.9
20260902061019 25 269 0.0 1.6 0.00 0.00 0.00 85 1004.9
20260902060519 25 269 0.0 1.6 0.00 0.00 0.00 84 1005.0
20260902060021 25 269 0.0 1.6 0.00 0.00 0.00 83 1005.0
20260902060007 25 46 0.0 1.6 0.00 0.00 0.00 83 1005.0
20260902055507 25 46 0.0 1.6 0.00 0.00 0.00 84 1005.1
20260902055019 25 89 0.0 1.6 0.00 0.00 0.00 83 1005.0
20260902054530 25 269 0.0 0.0 0.00 0.00 0.00 83 1005.0
20260902054008 25 223 0.0 0.0 0.00 0.00 0.00 82 1005.0
20260902053520 25 46 0.0 0.0 0.00 0.00 0.00 82 1005.1
20260902053007 25 269 0.0 1.6 0.00 0.00 0.00 83 1005.0
20260902052510 25 46 0.0 1.6 0.00 0.00 0.00 83 1005.0
20260902052018 25 223 0.0 1.6 0.00 0.00 0.00 83 1004.9
20260902051520 25 223 0.0 1.6 0.00 0.00 0.00 82 1005.0
20260902051507 25 178 0.0 1.6 0.00 0.00 0.00 82 1005.0
20260902051007 25 314 0.0 1.6 0.00 0.00 0.00 82 1005.0
20260902050520 25 269 0.0 1.6 0.00 0.00 0.00 83 1005.1
20260902050508 25 269 0.0 1.6 0.00 0.00 0.00 82 1005.1
20260902050031 25 269 0.0 1.6 0.00 0.00 0.00 82 1005.0
20260902050009 25 46 0.0 1.6 0.00 0.00 0.00 82 1005.0
20260902045508 25 269 0.0 1.6 0.00 0.00 0.00 82 1005.1
20260902045018 25 269 0.0 1.6 0.00 0.00 0.00 81 1005.1
20260902044508 25 269 0.0 1.6 0.00 0.00 0.00 81 1005.0
20260902044018 26 178 0.0 1.6 0.00 0.00 0.00 81 1005.0
20260902043513 26 240 0.0 1.6 0.00 0.00 0.00 81 1005.0
20260902043020 26 269 0.0 1.6 0.00 0.00 0.00 80 1005.0
20260902043008 26 314 0.0 1.6 0.00 0.00 0.00 80 1005.0
20260902042508 26 269 0.0 1.6 0.00 0.00 0.00 80 1005.0
20260902042008 26 269 0.0 1.6 0.00 0.00 0.00 80 1005.1
20260902041521 26 269 0.0 1.6 0.00 0.00 0.00 80 1005.1
20260902041509 26 223 0.0 1.6 0.00 0.00 0.00 80 1005.1
20260902041008 26 269 0.0 1.6 0.00 0.00 0.00 80 1005.1
20260902040531 26 223 0.0 1.6 0.00 0.00 0.00 80 1005.1
20260902040507 26 269 0.0 1.6 0.00 0.00 0.00 80 1005.1
20260902040009 26 269 0.0 1.6 0.00 0.00 0.00 79 1005.0
20260902035506 26 223 0.0 1.6 0.00 0.00 0.00 79 1005.0
20260902035020 26 269 0.0 1.6 0.00 0.00 0.00 79 1005.0
20260902035008 26 250 0.0 1.6 0.00 0.00 0.00 79 1005.0
20260902034507 26 269 0.0 1.6 0.00 0.00 0.00 79 1005.1
20260902034021 26 314 0.0 1.6 0.00 0.00 0.00 79 1005.0
20260902034007 26 240 0.0 1.6 0.00 0.00 0.00 79 1005.0
20260902033520 26 269 0.0 1.6 0.00 0.00 0.00 79 1005.0
20260902033507 26 206 0.0 1.6 0.00 0.00 0.00 79 1005.0
20260902033008 26 223 0.0 3.2 0.00 0.00 0.00 79 1005.0
20260902032508 26 269 0.0 3.2 0.00 0.00 0.00 79 1005.0
20260902032007 26 240 0.0 1.6 0.00 0.00 0.00 79 1005.0
20260902031530 26 240 0.0 3.2 0.00 0.00 0.00 79 1004.9
20260902031013 26 240 0.0 3.2 0.00 0.00 0.00 80 1005.0
20260902030507 26 253 0.0 3.2 0.00 0.00 0.00 80 1005.0
20260902030031 26 135 0.0 3.2 0.00 0.00 0.00 80 1005.0
20260902030008 26 223 1.6 3.2 0.00 0.00 0.00 80 1005.0
20260902025507 26 240 1.6 3.2 0.00 0.00 0.00 80 1005.0
20260902025009 26 250 0.0 1.6 0.00 0.00 0.00 80 1005.0
20260902024532 26 269 0.0 1.6 0.00 0.00 0.00 81 1005.1
20260902024019 26 253 0.0 1.6 0.00 0.00 0.00 80 1005.1
20260902023542 26 269 0.0 1.6 0.00 0.00 0.00 80 1005.1
20260902023508 26 269 0.0 1.6 0.00 0.00 0.00 80 1005.1
20260902023022 26 178 0.0 1.6 0.00 0.00 0.00 80 1005.1
20260902023007 26 269 0.0 1.6 0.00 0.00 0.00 80 1005.1
20260902022518 26 269 0.0 1.6 0.00 0.00 0.00 80 1005.1
20260902022020 27 269 0.0 1.6 0.00 0.00 0.00 79 1005.1
20260902022008 26 223 0.0 1.6 0.00 0.00 0.00 79 1005.1
20260902021616 27 223 0.0 1.6 0.00 0.00 0.00 79 1005.1
20260902021007 27 269 0.0 1.6 0.00 0.00 0.00 78 1005.1
20260902020520 27 360 0.0 1.6 0.00 0.00 0.00 77 1005.0
20260902020507 27 269 0.0 1.6 0.00 0.00 0.00 77 1005.0
20260902020020 27 314 0.0 1.6 0.00 0.00 0.00 77 1005.1
20260902020008 27 46 0.0 1.6 0.00 0.00 0.00 77 1005.1
20260902015538 27 269 0.0 1.6 0.00 0.00 0.00 77 1005.0
20260902015030 27 1 0.0 1.6 0.00 0.00 0.00 77 1005.0
20260902014520 27 46 0.0 1.6 0.00 0.00 0.00 76 1005.0
20260902014507 27 46 0.0 1.6 0.00 0.00 0.00 77 1005.0
20260902014010 27 46 0.0 1.6 0.00 0.00 0.00 75 1005.0
20260902013507 27 46 0.0 1.6 0.00 0.00 0.00 76 1004.9
20260902013020 28 1 0.0 1.6 0.00 0.00 0.00 75 1004.9
20260902013008 28 314 0.0 1.6 0.00 0.00 0.00 75 1004.9
20260902012507 28 46 0.0 1.6 0.00 0.00 0.00 75 1004.8
20260902012044 28 314 0.0 1.6 0.00 0.00 0.00 74 1004.7
20260902011531 28 240 0.0 1.6 0.00 0.00 0.00 74 1004.7
20260902011507 28 269 0.0 1.6 0.00 0.00 0.00 74 1004.7
20260902010507 28 269 0.0 1.6 0.00 0.00 0.00 73 1004.7
20260902010020 28 46 0.0 1.6 0.00 0.00 0.00 72 1004.7
20260902010008 28 314 0.0 1.6 0.00 0.00 0.00 72 1004.7
20260902005510 29 314 0.0 1.6 0.00 0.00 0.00 72 1004.6
20260902005006 29 223 0.0 0.0 0.00 0.00 0.00 71 1004.6
20260902004532 29 46 0.0 0.0 0.00 0.00 0.00 70 1004.6
20260902004507 29 269 0.0 0.0 0.00 0.00 0.00 70 1004.6
20260902004020 30 46 0.0 0.0 0.00 0.00 0.00 70 1004.6
20260902004007 30 223 0.0 0.0 0.00 0.00 0.00 70 1004.6
20260902003506 30 178 0.0 0.0 0.00 0.00 0.00 68 1004.6
20260902003019 30 46 0.0 0.0 0.00 0.00 0.00 67 1004.6
20260902002506 30 46 0.0 0.0 0.00 0.00 0.00 66 1004.6
20260902002020 30 269 0.0 0.0 0.00 0.00 0.00 66 1004.6
20260902002008 30 178 0.0 0.0 0.00 0.00 0.00 66 1004.6
20260902001520 30 135 0.0 0.0 0.00 0.00 0.00 65 1004.6
20260902001507 30 46 0.0 0.0 0.00 0.00 0.00 65 1004.6
20260902001014 31 46 0.0 0.0 0.00 0.00 0.00 64 1004.7
20260902000520 31 46 0.0 0.0 0.00 0.00 0.00 63 1004.7
20260902000508 31 269 0.0 0.0 0.00 0.00 0.00 63 1004.7
20260902000018 31 46 0.0 0.0 0.00 0.00 0.00 63 1004.7
20260901235518 31 46 0.0 0.0 0.00 0.00 0.00 62 1004.7
20260901235007 31 206 0.0 1.6 0.00 0.00 0.00 62 1004.6
20260901234507 31 46 0.0 1.6 0.00 0.00 0.00 62 1004.7
20260901234018 31 240 0.0 1.6 0.00 0.00 0.00 61 1004.7